Regional Weather Roundup
Issued by NWS

Home | Current Version | Previous Version | Text Only | Print | Product List | Glossary On
Versions: 1 2 3 4 5 6 7 8 9 10 11 12 13 14 15 16 17 18 19 20 21 22 23 24 25 26 27 28 29 30 31 32 33 34 35 36 37 38 39 40 41 42 43 44 45 46 47 48 49 50
000
ASUS43 KFSD 250102
RWRSD

WEATHER ROUNDUP FOR SOUTH DAKOTA
NATIONAL WEATHER SERVICE SIOUX FALLS SD
800 PM CDT FRI OCT 24 2014

NOTE: "FAIR" INDICATES FEW OR NO CLOUDS BELOW 12,000 FEET WITH NO
SIGNIFICANT WEATHER AND/OR OBSTRUCTIONS TO VISIBILITY.


SDZ001>005-009-010-012>017-250200-
NORTHWEST AND NORTH CENTRAL SOUTH DAKOTA

CITY           SKY/WX    TMP DP  RH WIND       PRES   REMARKS
BUFFALO          N/A     56  27  32 W8        30.02R
FAITH            N/A     57  32  38 NW8       30.05S
MOBRIDGE       CLOUDY    63  37  38 NW7       29.99R
$$

SDZ012>016-024>037-041>051-057-063-072>074-250200-
SOUTHWEST AND SOUTH CENTRAL SOUTH DAKOTA

CITY           SKY/WX    TMP DP  RH WIND       PRES   REMARKS
RAPID CTY ARPT CLEAR     57  37  47 N13       30.07R
PIERRE         PTCLDY    59  40  49 N8        29.97S
CUSTER         CLEAR     51  35  54 NE7       30.15R
ELLSWORTH AFB  CLEAR     59  36  41 N10       30.08R
PHILIP         CLEAR     58  39  49 N13       30.02R
PINE RIDGE     CLEAR     54  38  54 E6        30.05R
SPEARFISH      FAIR      48  37  66 S7        30.13R
WINNER         FAIR      64  30  27 SE5       30.00R
$$

SDZ004>011-016>023-039-040-250200-
NORTHEAST SOUTH DAKOTA

CITY           SKY/WX    TMP DP  RH WIND       PRES   REMARKS
ABERDEEN       MOCLDY    65  39  38 NW10      29.94R
WATERTOWN      CLEAR     58  40  51 W10       29.94R
SISSETON         N/A     63  40  42 NW7       29.89R
$$

SDZ017-020-022-023-036>040-048>070-250200-
SOUTHEAST SOUTH DAKOTA

CITY           SKY/WX    TMP DP  RH WIND       PRES   REMARKS
SIOUX FALLS    PTCLDY    57  43  59 S3        29.94R
HURON          CLEAR     54  36  50 NW9       29.95R
CHAMBERLAIN    CLEAR     54  35  48 CALM      29.98R
MITCHELL         N/A     64  41  42 W5        29.96R
YANKTON        PTCLDY    59  45  58 W5        29.96R
$$

ABBREVIATIONS USED IN REMARKS
   TC - TEMPERATURE IN CELSIUS
  WCI - WIND CHILL INDEX
   HX - HEAT INDEX
  VSB - VISIBILITY




USA.gov is the U.S. government's official web portal to all federal, state and local government web resources and services.